STARLINK-36830, 68110

Orbit data source: Space-Track

STARLINK-36830, 68110 is a payload satellite owned by SpaceX/Seattle (US) in SSO that was launched on Sun, 08 Mar 2026 UTC via an FALCON 9 launch vehicle from the Air Force Western Test Range (AFWTR). Payload-class satellites include a variety of spacecraft equipped with specific instruments for various scientific and technological missions. These include communications satellites like Starlink; space stations such as the ISS; scientific satellites like the Hubble; Earth observation satellites from companies like Planet Labs, Umbra, and HawkEye 360; GPS; miniature CubeSats for education and research; and military/defense satellites.

Loading next visibility...
Identifier
68110, 2026-044K
Orbit
SSO
Country
Flag of USUS
Related business
Manufacturer
SpaceX/Seattle
Mission
Operational Commercial Communications
Bus & Motor
STARLINK V2MO, Unknown motor
Mass
575 kg wet, ~530 kg dry
Launch date (UTC)
2026-03-08 (6 months ago)
Launch vehicle
FALCON 9
Launch site
Air Force Western Test Range (AFWTR)
Object type
Payload
Rocket body
Debris
Shape & HBR
Box + 1 Pan, 17.7 m
Radar Cross Section
41.120 m², Large (>1 m²)

Expand to show TLE details & history
Last TLE update: 14 hours ago

TLE from 14 hours ago
0 STARLINK-36830
1 68110U 26044K   26246.84535288  .00022663  00000-0  70268-3 0  9990
2 68110  97.2852 206.0031 0001869 101.1954 258.9499 15.33422396 28888
Epoch: 2026-09-03T20:17Z
TLE epoch observation values (Epoch: 2026-09-03T20:17:18.488Z)
Latitude
-0.00004°
Longitude
-81.30161°
Altitude
468.968 km
Speed
7.632 km/s
True Right ascension
13h 44m 00s
True Declination
0° 00' 00"
Sunlit
Object was in daylight at epoch
Visualization orbit readout
Latitude
Unknown
Longitude
Unknown
Altitude
Unknown
Speed
Unknown
Apparent Right ascension
Unknown
Apparent Declination
Unknown
Sunlit
N/A
Visualization observer readout
Local Sidereal Time
01:42:47
Azimuth
Unknown
Elevation
Unknown
Doppler factor
Unknown
Orbital elements
Apogee altitude
463.832 km
Perigee altitude
461.275 km
Semi-major axis
6,840.69 km
Eccentricity
0.00019
Inclination
97.2852°
RAAN
206.0031°
Arg. of periapsis
101.1954°
True anomaly
258.92888°
Mean anomaly
258.9499°
Eccentric anomaly
258.93939°
Mean motion
3.83613 °/min
Orbital period
93.84 mins
BSTAR
0.00070268
Loading maneuver chart data...
Computing Atmospheric mass density...
Loading historical data...
Loading historical data...
Loading historical data...
Loading historical data...
Loading historical data...
Loading historical data...
Loading historical data...

Documentation

Showing up to 5 results
|